Location: Peebles
(55.6412°N, 3.1714°W)
Time: 15:41:03
(UTC+01:00)

deb Agena D - Pass Details

Date: 21 September 2024
Orbit: 793 x 976 km, 99.8° (Epoch: 03 October)

Event Time Altitude Azimuth Distance (km) Brightness Sun altitude
Rises 02:15:53 0° 24° (NNE) 3,463 10.5 -32.0°
Reaches altitude 10° 02:18:41 10° 38° (NE) 2,552 9.5 -31.9°
Maximum altitude 02:23:18 25° 92° (E) 1,752 8.0 -31.6°
Enters shadow 02:24:04 24° 104° (ESE) 1,785 7.9 -31.6°
